TimeCDT,TemperatureF,Dew PointF,Humidity,Sea Level PressureIn,VisibilityMPH,Wind Direction,Wind SpeedMPH,Gust SpeedMPH,PrecipitationIn,Events,Conditions,WindDirDegrees,DateUTC
12:53 AM,66.0,51.1,59,30.13,10.0,WNW,5.8,-,N/A,,Clear,300,2013-10-07 05:53:00
1:53 AM,64.9,48.9,56,30.12,10.0,WNW,5.8,-,N/A,,Clear,300,2013-10-07 06:53:00
2:53 AM,64.9,48.0,54,30.12,10.0,NW,8.1,-,N/A,,Clear,310,2013-10-07 07:53:00
3:53 AM,62.1,50.0,65,30.10,10.0,WNW,3.5,-,N/A,,Clear,300,2013-10-07 08:53:00
4:53 AM,57.9,51.1,78,30.11,10.0,WNW,4.6,-,N/A,,Clear,290,2013-10-07 09:53:00
5:53 AM,57.0,51.1,81,30.11,10.0,West,3.5,-,N/A,,Clear,270,2013-10-07 10:53:00
6:53 AM,55.9,51.1,84,30.12,10.0,West,3.5,-,N/A,,Clear,280,2013-10-07 11:53:00
7:53 AM,55.9,51.1,84,30.15,10.0,West,3.5,-,N/A,,Clear,260,2013-10-07 12:53:00
8:53 AM,61.0,52.0,72,30.16,10.0,WNW,4.6,-,N/A,,Clear,300,2013-10-07 13:53:00
9:53 AM,69.1,52.0,54,30.17,10.0,West,5.8,-,N/A,,Clear,270,2013-10-07 14:53:00
10:53 AM,77.0,51.1,40,30.17,10.0,Variable,4.6,-,N/A,,Clear,0,2013-10-07 15:53:00
11:53 AM,82.0,43.0,25,30.16,10.0,NW,4.6,-,N/A,,Clear,310,2013-10-07 16:53:00
12:53 PM,84.0,39.0,20,30.14,10.0,Variable,3.5,-,N/A,,Clear,0,2013-10-07 17:53:00
1:53 PM,84.9,39.0,20,30.11,10.0,North,8.1,-,N/A,,Clear,10,2013-10-07 18:53:00
2:53 PM,86.0,41.0,20,30.08,10.0,NE,8.1,-,N/A,,Clear,50,2013-10-07 19:53:00
3:53 PM,87.1,39.0,18,30.06,10.0,NNW,4.6,-,N/A,,Clear,330,2013-10-07 20:53:00
4:53 PM,87.1,37.9,18,30.05,10.0,North,9.2,-,N/A,,Clear,360,2013-10-07 21:53:00
5:53 PM,86.0,37.0,18,30.04,10.0,North,4.6,-,N/A,,Clear,360,2013-10-07 22:53:00
6:53 PM,82.9,37.9,20,30.05,10.0,Calm,Calm,-,N/A,,Clear,0,2013-10-07 23:53:00
7:53 PM,77.0,45.0,32,30.06,10.0,East,4.6,-,N/A,,Clear,90,2013-10-08 00:53:00
8:53 PM,75.0,46.9,37,30.08,10.0,East,6.9,-,N/A,,Clear,90,2013-10-08 01:53:00
9:53 PM,68.0,51.1,55,30.10,10.0,Calm,Calm,-,N/A,,Clear,0,2013-10-08 02:53:00
10:53 PM,64.9,50.0,58,30.10,10.0,Calm,Calm,-,N/A,,Clear,0,2013-10-08 03:53:00
11:53 PM,64.0,52.0,65,30.09,10.0,Calm,Calm,-,N/A,,Clear,0,2013-10-08 04:53:00